Location: Schommer Observatory
(40.5200°N, 74.4500°W)
Time: 18:32:38
(UTC-04:00)

AO-85 - Visible Passes

Search period start: 22 July 2018 00:00
Search period end: 01 August 2018 00:00
Orbit: 495 x 790 km, 64.8° (Epoch: 18 July)

Date Brightness Start Highest point End Pass type
(mag) Time Alt. Az. Time Alt. Az. Time Alt. Az.
22 Jul ? 21:43:46 10° NW 21:48:26 29° WSW 21:53:00 10° S visible
23 Jul ? 22:10:33 10° W 22:12:52 13° WSW 22:15:08 10° SW visible
24 Jul ? 20:52:50 10° NW 20:57:59 42° WSW 21:02:59 10° S visible
25 Jul ? 21:18:46 10° WNW 21:22:31 19° WSW 21:26:12 10° SSW visible
28 Jul ? 20:54:39 10° W 20:56:33 12° WSW 20:58:24 10° SW visible
